• Em Portugal
  • Lista de países
  • Para 7 dias
  • Temperatura da água
  • Mapas de satélite
  • Mapa do tempo
  • Widgets de tempo
  • user-avatar
    Iniciar Sessão

    Previsão horária em Sarajevo

    Hoje, 17 Outubro, Terça-feira

    Tempo Temperatura Precipitação Vento Pressão Humidade
    00:00 +13°C° 0 mm 1 m/s 696 mmHg 60%
    01:00 +13°C° 0 mm 1 m/s 696 mmHg 61%
    02:00 +13°C° 0 mm 1 m/s 696 mmHg 61%
    03:00 +13°C° 0 mm 1 m/s 695 mmHg 61%
    04:00 +13°C° 0 mm 1 m/s 695 mmHg 61%
    05:00 +13°C° 0 mm 1 m/s 695 mmHg 61%
    06:00 +13°C° 0 mm 1 m/s 695 mmHg 60%
    07:00 +13°C° 0 mm 1 m/s 695 mmHg 62%
    08:00 +16°C° 0 mm 1 m/s 696 mmHg 54%
    09:00 +18°C° 0 mm 0 m/s 696 mmHg 47%
    10:00 +21°C° 0 mm 0 m/s 697 mmHg 39%
    11:00 +21°C° 0 mm 0 m/s 697 mmHg 37%
    12:00 +24°C° 0 mm 1 m/s 697 mmHg 35%
    13:00 +24°C° 0 mm 1 m/s 697 mmHg 34%
    14:00 +23°C° 0 mm 1 m/s 696 mmHg 39%
    15:00 +22°C° 0 mm 1 m/s 695 mmHg 44%
    16:00 +19°C° 0 mm 0 m/s 695 mmHg 49%
    17:00 +19°C° 0 mm 1 m/s 695 mmHg 51%
    18:00 +16°C° 0 mm 1 m/s 694 mmHg 53%
    19:00 +14°C° 0 mm 1 m/s 694 mmHg 55%
    20:00 +14°C° 0 mm 1 m/s 694 mmHg 55%
    21:00 +14°C° 0 mm 1 m/s 693 mmHg 54%
    22:00 +14°C° 0 mm 1 m/s 693 mmHg 53%
    23:00 +13°C° 0 mm 1 m/s 693 mmHg 52%

    Amanhã, 18 Outubro, Quarta-feira

    Tempo Temperatura Precipitação Vento Pressão Humidade
    00:00 +13°C° 0 mm 1 m/s 693 mmHg 52%
    01:00 +13°C° 0 mm 1 m/s 693 mmHg 51%
    02:00 +13°C° 0 mm 1 m/s 692 mmHg 50%
    03:00 +13°C° 0 mm 1 m/s 692 mmHg 50%
    04:00 +13°C° 0 mm 1 m/s 692 mmHg 49%
    05:00 +13°C° 0 mm 1 m/s 692 mmHg 51%
    06:00 +13°C° 0 mm 1 m/s 692 mmHg 52%
    07:00 +13°C° 0 mm 1 m/s 692 mmHg 53%
    08:00 +16°C° 0 mm 1 m/s 692 mmHg 48%
    09:00 +19°C° 0 mm 1 m/s 692 mmHg 44%
    10:00 +22°C° 0 mm 1 m/s 693 mmHg 39%
    11:00 +22°C° 0 mm 1 m/s 693 mmHg 39%
    12:00 +23°C° 0 mm 2 m/s 692 mmHg 39%
    13:00 +23°C° 0 mm 2 m/s 692 mmHg 38%
    14:00 +21°C° 0 mm 2 m/s 692 mmHg 44%
    15:00 +21°C° 0 mm 1 m/s 691 mmHg 50%
    16:00 +20°C° 0 mm 1 m/s 691 mmHg 55%
    17:00 +18°C° 0 mm 1 m/s 691 mmHg 60%
    18:00 +15°C° 0 mm 1 m/s 690 mmHg 65%
    19:00 +14°C° 0 mm 1 m/s 690 mmHg 70%
    20:00 +13°C° 0 mm 1 m/s 690 mmHg 72%
    21:00 +13°C° 0 mm 1 m/s 690 mmHg 73%
    22:00 +12°C° 0 mm 1 m/s 690 mmHg 74%
    23:00 +12°C° 0 mm 1 m/s 690 mmHg 75%

    Depois de amanhã, 19 Outubro, Quinta-feira

    Tempo Temperatura Precipitação Vento Pressão Humidade
    00:00 +12°C° 0 mm 1 m/s 690 mmHg 75%
    01:00 +11°C° 0 mm 1 m/s 690 mmHg 76%
    02:00 +11°C° 0 mm 1 m/s 690 mmHg 76%
    03:00 +11°C° 0 mm 1 m/s 689 mmHg 76%
    04:00 +11°C° 0 mm 1 m/s 689 mmHg 77%
    05:00 +11°C° 0 mm 1 m/s 689 mmHg 75%
    06:00 +11°C° 0 mm 1 m/s 689 mmHg 74%
    07:00 +11°C° 0 mm 1 m/s 689 mmHg 73%
    08:00 +14°C° 0 mm 1 m/s 690 mmHg 64%
    09:00 +16°C° 0 mm 1 m/s 691 mmHg 55%
    10:00 +20°C° 0 mm 1 m/s 691 mmHg 46%
    11:00 +21°C° 0 mm 1 m/s 691 mmHg 44%
    12:00 +20°C° 0 mm 2 m/s 691 mmHg 42%
    13:00 +21°C° 0 mm 2 m/s 691 mmHg 40%
    14:00 +21°C° 0 mm 1 m/s 690 mmHg 46%
    15:00 +20°C° 0 mm 1 m/s 690 mmHg 51%
    16:00 +19°C° 0 mm 1 m/s 690 mmHg 57%
    17:00 +16°C° 0 mm 1 m/s 689 mmHg 63%
    18:00 +14°C° 0 mm 1 m/s 689 mmHg 70%
    19:00 +12°C° 0 mm 1 m/s 689 mmHg 77%
    20:00 +12°C° 0 mm 1 m/s 689 mmHg 78%
    21:00 +11°C° 0 mm 1 m/s 689 mmHg 80%
    22:00 +11°C° 0 mm 1 m/s 689 mmHg 82%
    23:00 +10°C° 0 mm 1 m/s 689 mmHg 82%

    20 Outubro, Sexta-feira

    Tempo Temperatura Precipitação Vento Pressão Humidade
    00:00 +10°C° 0 mm 1 m/s 689 mmHg 82%
    01:00 +10°C° 0 mm 1 m/s 689 mmHg 82%
    02:00 +10°C° 0 mm 1 m/s 689 mmHg 81%
    03:00 +10°C° 0 mm 1 m/s 689 mmHg 80%
    04:00 +9°C° 0 mm 1 m/s 688 mmHg 79%
    05:00 +10°C° 0 mm 1 m/s 689 mmHg 77%
    06:00 +10°C° 0 mm 1 m/s 689 mmHg 75%
    07:00 +10°C° 0 mm 1 m/s 689 mmHg 73%
    08:00 +13°C° 0 mm 1 m/s 690 mmHg 65%
    09:00 +15°C° 0 mm 1 m/s 690 mmHg 56%
    10:00 +19°C° 0 mm 1 m/s 691 mmHg 47%
    11:00 +20°C° 0 mm 1 m/s 691 mmHg 45%
    12:00 +20°C° 0 mm 1 m/s 691 mmHg 43%
    13:00 +21°C° 0 mm 1 m/s 691 mmHg 41%
    14:00 +20°C° 0 mm 1 m/s 691 mmHg 46%
    15:00 +19°C° 0 mm 1 m/s 690 mmHg 51%
    16:00 +18°C° 0 mm 1 m/s 690 mmHg 56%
    17:00 +15°C° 0 mm 1 m/s 690 mmHg 63%
    18:00 +12°C° 0 mm 0 m/s 690 mmHg 69%
    19:00 +10°C° 0 mm 0 m/s 690 mmHg 75%
    20:00 +10°C° 0 mm 0 m/s 690 mmHg 76%
    21:00 +11°C° 0 mm 1 m/s 690 mmHg 77%
    22:00 +10°C° 0 mm 1 m/s 690 mmHg 78%
    23:00 +10°C° 0 mm 1 m/s 690 mmHg 78%

    21 Outubro, Sábado

    Tempo Temperatura Precipitação Vento Pressão Humidade
    00:00 +10°C° 0 mm 1 m/s 690 mmHg 77%
    01:00 +10°C° 0 mm 1 m/s 690 mmHg 77%
    02:00 +10°C° 0 mm 1 m/s 690 mmHg 77%
    03:00 +9°C° 0 mm 1 m/s 690 mmHg 76%
    04:00 +9°C° 0 mm 1 m/s 690 mmHg 75%
    05:00 +9°C° 0 mm 1 m/s 690 mmHg 74%
    06:00 +10°C° 0 mm 1 m/s 690 mmHg 73%
    07:00 +10°C° 0 mm 1 m/s 690 mmHg 71%
    08:00 +13°C° 0 mm 1 m/s 691 mmHg 62%
    09:00 +15°C° 0 mm 0 m/s 692 mmHg 54%
    10:00 +18°C° 0 mm 0 m/s 692 mmHg 45%
    11:00 +18°C° 0 mm 0 m/s 692 mmHg 43%
    12:00 +21°C° 0 mm 1 m/s 692 mmHg 40%
    13:00 +22°C° 0 mm 1 m/s 692 mmHg 38%
    14:00 +21°C° 0 mm 1 m/s 692 mmHg 43%
    15:00 +19°C° 0 mm 1 m/s 691 mmHg 48%
    16:00 +18°C° 0 mm 1 m/s 691 mmHg 53%
    17:00 +15°C° 0 mm 1 m/s 691 mmHg 58%
    18:00 +14°C° 0 mm 1 m/s 690 mmHg 64%
    19:00 +11°C° 0 mm 0 m/s 690 mmHg 69%
    20:00 +11°C° 0 mm 1 m/s 690 mmHg 69%
    21:00 +11°C° 0 mm 1 m/s 690 mmHg 70%
    22:00 +11°C° 0 mm 1 m/s 690 mmHg 70%
    23:00 +10°C° 0 mm 1 m/s 690 mmHg 70%

    22 Outubro, Domingo

    Tempo Temperatura Precipitação Vento Pressão Humidade
    00:00 +10°C° 0 mm 1 m/s 690 mmHg 70%
    01:00 +10°C° 0 mm 1 m/s 690 mmHg 70%
    02:00 +10°C° 0 mm 1 m/s 690 mmHg 70%
    03:00 +10°C° 0 mm 1 m/s 690 mmHg 70%
    04:00 +9°C° 0 mm 1 m/s 689 mmHg 70%
    05:00 +10°C° 0 mm 1 m/s 689 mmHg 69%
    06:00 +10°C° 0 mm 1 m/s 689 mmHg 68%
    07:00 +10°C° 0 mm 1 m/s 689 mmHg 66%
    08:00 +13°C° 0 mm 1 m/s 690 mmHg 57%
    09:00 +15°C° 0 mm 1 m/s 690 mmHg 48%
    10:00 +19°C° 0 mm 1 m/s 691 mmHg 39%
    11:00 +19°C° 0 mm 1 m/s 690 mmHg 37%
    12:00 +19°C° 0 mm 2 m/s 690 mmHg 35%
    13:00 +20°C° 0 mm 2 m/s 690 mmHg 33%
    14:00 +18°C° 0 mm 2 m/s 689 mmHg 39%
    15:00 +18°C° 0 mm 1 m/s 689 mmHg 45%
    16:00 +16°C° 0 mm 1 m/s 688 mmHg 51%
    17:00 +14°C° 0 mm 1 m/s 688 mmHg 56%
    18:00 +13°C° 0 mm 1 m/s 687 mmHg 61%
    19:00 +11°C° 0 mm 1 m/s 687 mmHg 65%
    20:00 +10°C° 0 mm 2 m/s 687 mmHg 66%
    21:00 +10°C° 0 mm 2 m/s 687 mmHg 66%
    22:00 +10°C° 0 mm 2 m/s 687 mmHg 66%
    23:00 +11°C° 0 mm 1 m/s 687 mmHg 64%
    Mostrar mais